Tracking 30970 objects as of 3-Jul-2025
HD Live streaming from Space Station
objects crossing your sky now

NOAA 16 DEB

Track NOAA 16 DEB now!
10-day predictions


NORAD ID: 41408
Int'l Code: 2000-055KM
Perigee: 788.2 km
Apogee: 805.4 km
Inclination: 98.7 °
Period: 100.7 minutes
Semi major axis: 7167 km
RCS: Unknown
Launch date: September 21, 2000
Source: United States (US)
Launch site: AIR FORCE WESTERN TEST RANGE (AFWTR)

Note: This is SATELLITE DEBRIS
Your satellite tracking list
ONEWEB-0276
Track 1 satellite(s)




NASA's NSSDC Master Catalog

Two Line Element Set (TLE):
1 41408U 00055KM  25182.00768673  .00002955  00000-0  11476-2 0  9994
2 41408  98.7297 272.5415 0012004 187.1693 172.9320 14.30611450484969
Source of the keplerian elements: AFSPC